TOURFACTS.DK  
Stats and Facts from Tour de France.

Tour de France 2019 starts in 320 days
  Riders   Stages   Teams   Summits   Yearly  


 
Search by year

After 2018 - Stage 21:
 15000 starters.
  5165 different riders.
  638 teams.
  2253 stages.
  456 restdays.
  442940.60 km.
  5684 abandonnees.


Top 3
GC
Geraint Thomas83:17:13
Tom Dumoulin83:19:04
Christopher Froome83:19:37
Climb
Julian Alaphilippe170 pt.
Warren Barguil91 pt.
Rafal Majka76 pt.
Sprint
Peter Sagan477 pt.
Alexander Kristoff246 pt.
Arnaud Démare203 pt.
Youth
Pierre-Roger Latou..83:39:26
Egan Bernal83:45:05
Guillaume Martin84:01:31
Facts from Tour de France 2016
  |   Stages.  |   Stage winners.  |   Days in yellow  |   Average speed.  |   Route.  |   Teams.  |   All riders.  |   Rookies.  |  

  |   Withdrawls.  |   GC.  |   Polka  |   Green  |   White  |   Summits. (In tour)  |   Miscellaneous.  |  

Stage 20 on 23 - 07 - 2016
         Owning:    Christopher Froome      Rafal Majka      Peter Sagan      Adam Yates  

Pick a stage:  1 2 3 4 5 6 7 8 9 10 11 12 13 14 15 16 17 18 19 20 21
  MegèveMorzine | Dist: 146.00 km.
Cat: 2Col de l'Aravis - ThônesBELThomas De Gendt5 points 
Cat: 1Col de la Colombiere BELThomas De Gendt10 points 
Cat: 1Col de la RamazBELThomas De Gendt10 points 
Cat: HCol de Joux-PlaneCOLJarlinson Pantano Gomez25 points 

Average speed for all riders in stage:  32,530 km./hr.
    Place:Name:Team:Time:Km/h:
1
ESPJon Izaguirre InsaustiESPMovistar Team04:06:45  +  00:00:00=35,502 
2
COLJarlinson Pantano GomezCHEIAM Cycling04:07:04  +  00:00:19=35,456 
3
ITAVincenzo NibaliKAZAstana Pro Team04:07:27  +  00:00:42=35,401 
44 FRAJulian AlaphilippeBELEtixx - Quick Step04:07:34  +  00:00:49=35,384 
55 PORRui CostaITALampre-Merida04:08:28  +  00:01:43=35,256 
66 CZERoman KreuzigerRUSTinkoff04:08:29  +  00:01:44=35,254 
77 NEDWilco KeldermanNLDTeam Lotto NL - Jumbo04:07:34  +  00:00:49=35,384 
88 ESPJoaquim RodriguezRUSTeam Katusha04:10:09  +  00:03:24=35,019 
99 ENGDaniel MartinBELEtixx - Quick Step04:10:57  +  00:04:12=34,907 
1010 FRARomain BardetFRAAg2r La Mondiale04:10:57  +  00:04:12=34,907 
1111 COLNairo QuintanaESPMovistar Team04:10:57  +  00:04:12=34,907 
1212 ESPAlejandro ValverdeESPMovistar Team04:10:59  +  00:04:14=34,903 
1313 ENGAdam YatesAUSORICA BikeExchange04:10:59  +  00:04:14=34,903 
1414 RSALouis MeintjesITALampre-Merida04:10:59  +  00:04:14=34,903 
1515 POLRafal MajkaRUSTinkoff04:11:02  +  00:04:17=34,896 
1616 ITADamiano CarusoUSABMC Racing Team04:11:03  +  00:04:18=34,893 
1717 NEDWout PoelsGBRSky Procycling04:11:03  +  00:04:18=34,893 
1818 WALGeraint ThomasGBRSky Procycling04:11:03  +  00:04:18=34,893 
1919 COLSergio Luis HenaoGBRSky Procycling04:11:03  +  00:04:18=34,893 
2020 KENChristopher FroomeGBRSky Procycling04:11:03  +  00:04:18=34,893 
2121 ESPMikel NieveGBRSky Procycling04:11:03  +  00:04:18=34,893 
2222 AUSRichie PorteUSABMC Racing Team04:11:03  +  00:04:18=34,893 
2323 FRAAlexis VuillermozFRAAg2r La Mondiale04:11:29  +  00:04:44=34,833 
2424 FRAPierre RollandUSATeam Cannondale Drapac04:11:36  +  00:04:51=34,817 
2525 BELThomas De GendtBELLotto Soudal04:12:27  +  00:05:42=34,700 
2626 ESPLuis Angel MateFRACofidis – Solutions Crédits04:13:31  +  00:06:46=34,554 
2727 ESPDaniel MorenoESPMovistar Team04:13:40  +  00:06:55=34,534 
2828 SLOJan PolancITALampre-Merida04:13:40  +  00:06:55=34,534 
2929 RUSIlnur ZakarinRUSTeam Katusha04:13:48  +  00:07:03=34,515 
3030 ITADomenico PozzovivoFRAAg2r La Mondiale04:13:54  +  00:07:09=34,502 
3131 SUISébastien ReichenbachFRAFDJ04:14:25  +  00:07:40=34,432 
3232 NEDStef ClementCHEIAM Cycling04:14:49  +  00:08:04=34,378 
3333 FRAPierre-Luc PérichonFRAFortuneo - Vital Concept04:15:34  +  00:08:49=34,277 
3434 GEREmanuel BuchmannDEUBora-Argon 1804:15:55  +  00:09:10=34,230 
3535 POLBartosz HuzarskiDEUBora-Argon 1804:15:55  +  00:09:10=34,230 
3636 NEDBauke MollemaUSATrek - Segafredo04:16:34  +  00:09:49=34,143 
3737 FRAArthur VichotFRAFDJ04:17:06  +  00:10:21=34,072 
3838 ESPHaimar ZubeldiaUSATrek - Segafredo04:17:25  +  00:10:40=34,030 
3939 BELJulien VermoteBELEtixx - Quick Step04:17:43  +  00:10:58=33,991 
4040 LUXFränk SchleckUSATrek - Segafredo04:18:12  +  00:11:27=33,927 
4141 FRASylvain ChavanelFRADirect Energie04:18:44  +  00:11:59=33,857 
4242 SUIReto HollensteinCHEIAM Cycling04:19:02  +  00:12:17=33,818 
4343 SUIMartin ElmigerCHEIAM Cycling04:19:02  +  00:12:17=33,818 
4444 DENMichael ValgrenRUSTinkoff04:19:02  +  00:12:17=33,818 
4545 GERSimon GeschkeDEUTeam Giant Alpecin04:19:08  +  00:12:23=33,805 
4646 FRANicolas EdetFRACofidis – Solutions Crédits04:19:36  +  00:12:51=33,744 
4747 BELJan BakelantsFRAAg2r La Mondiale04:19:36  +  00:12:51=33,744 
4848 FRAAnthony RouxFRAFDJ04:20:02  +  00:13:17=33,688 
4949 COLWinner AnaconaESPMovistar Team04:21:03  +  00:14:18=33,557 
5050 RSADaryl ImpeyAUSORICA BikeExchange04:21:18  +  00:14:33=33,525 
5151 BELJasper StuyvenUSATrek - Segafredo04:22:00  +  00:15:15=33,435 
5252 GERPaul VossDEUBora-Argon 1804:22:51  +  00:16:06=33,327 
5353 USABrent BookwalterUSABMC Racing Team04:24:10  +  00:17:25=33,161 
5454 URSTanel KangertKAZAstana Pro Team04:24:23  +  00:17:38=33,134 
5555 ESPLuis León SánchezKAZAstana Pro Team04:24:23  +  00:17:38=33,134 
5656 ITAFabio AruKAZAstana Pro Team04:24:23  +  00:17:38=33,134 
5757 ITADiego RosaKAZAstana Pro Team04:24:23  +  00:17:38=33,134 
5858 KAZAlexey LutsenkoKAZAstana Pro Team04:24:23  +  00:17:38=33,134 
5959 USATejay Van GarderenUSABMC Racing Team04:24:23  +  00:17:38=33,134 
6060 FRAAmaël MoinardUSABMC Racing Team04:24:23  +  00:17:38=33,134 
6161 ESPMikel Landa MeanaGBRSky Procycling04:24:23  +  00:17:38=33,134 
6262 FRAFabrice JeandesbozFRADirect Energie04:24:48  +  00:18:03=33,082 
6363 FRAMickaël CherelFRAAg2r La Mondiale04:24:53  +  00:18:08=33,071 
6464 FRACyril GautierFRAAg2r La Mondiale04:24:53  +  00:18:08=33,071 
6565 LUXBen GastauerFRAAg2r La Mondiale04:24:53  +  00:18:08=33,071 
6666 BELSep VanmarckeNLDTeam Lotto NL - Jumbo04:26:42  +  00:19:57=32,846 
6767 NEDTimo RoosenNLDTeam Lotto NL - Jumbo04:26:42  +  00:19:57=32,846 
6868 AUTPatrick KonradDEUBora-Argon 1804:26:42  +  00:19:57=32,846 
6969 NZLGeorge BennettNLDTeam Lotto NL - Jumbo04:26:42  +  00:19:57=32,846 
7070 FRAWarren BarguilDEUTeam Giant Alpecin04:26:42  +  00:19:57=32,846 
7171 ITAMatteo BonoITALampre-Merida04:27:38  +  00:20:53=32,731 
7272 HRVKristijan DurasekITALampre-Merida04:27:38  +  00:20:53=32,731 
7373 AUTGeorg PreidlerDEUTeam Giant Alpecin04:27:38  +  00:20:53=32,731 
7474 NEDDylan Van BaarleUSATeam Cannondale Drapac04:27:38  +  00:20:53=32,731 
7575 SUIMichael SchärUSABMC Racing Team04:27:38  +  00:20:53=32,731 
7676 FRATony GallopinBELLotto Soudal04:27:38  +  00:20:53=32,731 
7777 ESPImanol ErvitiESPMovistar Team04:27:38  +  00:20:53=32,731 
7878 BELOliver NaesenCHEIAM Cycling04:27:38  +  00:20:53=32,731 
7979 FRAJérôme CoppelCHEIAM Cycling04:27:38  +  00:20:53=32,731 
8080 ETHTsgabu Gebremaryan GrmayITALampre-Merida04:27:53  +  00:21:08=32,701 
8181 IRLChristopher Juul JensenAUSORICA BikeExchange04:28:54  +  00:22:09=32,577 
8282 SLOLuka PibernikITALampre-Merida04:29:20  +  00:22:35=32,525 
8383 PORNelson OliveiraESPMovistar Team04:29:20  +  00:22:35=32,525 
8484 ITACesare BenedettiDEUBora-Argon 1804:29:44  +  00:22:59=32,477 
8585 GERPaul MartensNLDTeam Lotto NL - Jumbo04:30:43  +  00:23:58=32,359 
8686 USAPeter StetinaUSATrek - Segafredo04:33:16  +  00:26:31=32,057 
8787 CZEJan BártaDEUBora-Argon 1804:33:16  +  00:26:31=32,057 
8888 SUIJakob FuglsangKAZAstana Pro Team04:33:41  +  00:26:56=32,008 
8989 FRA Alexis GougeardFRAAg2r La Mondiale04:33:41  +  00:26:56=32,008 
9090 HRVRobert KiserlovskiRUSTinkoff04:34:07  +  00:27:22=31,957 
9191 SUISteve MorabitoFRAFDJ04:34:42  +  00:27:57=31,889 
9292 ERIDaniel TeklehaimanotZAFDimension Data04:34:42  +  00:27:57=31,889 
9393 FRAJérôme CousinFRACofidis – Solutions Crédits04:34:42  +  00:27:57=31,889 
9494 ESPAlberto LosadaRUSTeam Katusha04:34:42  +  00:27:57=31,889 
9595 NEDTom-Jelte SlagterUSATeam Cannondale Drapac04:34:42  +  00:27:57=31,889 
9696 BLRVasil KiryienkaGBRSky Procycling04:34:42  +  00:27:57=31,889 
9797 SVKPeter SaganRUSTinkoff04:35:02  +  00:28:17=31,851 
9898 ESPRubén PlazaAUSORICA BikeExchange04:36:19  +  00:29:34=31,703 
9999 AUTMarco HallerRUSTeam Katusha04:36:22  +  00:29:37=31,697 
100100 CANAntoine DuchesneFRADirect Energie04:36:25  +  00:29:40=31,691 
101101 GERMarcus BurghardtUSABMC Racing Team04:36:37  +  00:29:52=31,668 
102102 WALLuke RoweGBRSky Procycling04:36:37  +  00:29:52=31,668 
103103 AUSMichael MatthewsAUSORICA BikeExchange04:36:37  +  00:29:52=31,668 
104104 NORVegard BreenFRAFortuneo - Vital Concept04:36:37  +  00:29:52=31,668 
105105 AUSAdam HansenBELLotto Soudal04:36:37  +  00:29:52=31,668 
106106 BELGreg Van AvermaetUSABMC Racing Team04:36:37  +  00:29:52=31,668 
107107 ENGIan StannardGBRSky Procycling04:36:37  +  00:29:52=31,668 
108108 ITAPaolo TiralongoKAZAstana Pro Team04:36:37  +  00:29:52=31,668 
109109 SLOKristjan KorenUSATeam Cannondale Drapac04:36:37  +  00:29:52=31,668 
110110 NEDBert-Jan LindemanNLDTeam Lotto NL - Jumbo04:36:37  +  00:29:52=31,668 
111111 DENChris Anker SørensenFRAFortuneo - Vital Concept04:36:37  +  00:29:52=31,668 
112112 FRAAnthony DelaplaceFRAFortuneo - Vital Concept04:36:37  +  00:29:52=31,668 
113113 FRABryan CoquardFRADirect Energie04:36:53  +  00:30:08=31,638 
114114 JPNYukiya ArashiroITALampre-Merida04:36:53  +  00:30:08=31,638 
115115 FRARomain SicardFRADirect Energie04:36:53  +  00:30:08=31,638 
116116 ESPÁngel ViciosoRUSTeam Katusha04:37:09  +  00:30:24=31,607 
117117 FRABrice FeilluFRAFortuneo - Vital Concept04:37:29  +  00:30:44=31,569 
118118 NORSondre Holst EngerCHEIAM Cycling04:40:11  +  00:33:26=31,265 
119119 ITAOscar GattoRUSTinkoff04:40:31  +  00:33:46=31,228 
120120 BELJürgen RoelandtsBELLotto Soudal04:40:31  +  00:33:46=31,228 
121121 BRAMaximilano RichezeBELEtixx - Quick Step04:40:31  +  00:33:46=31,228 
122122 NEDRoy CurversDEUTeam Giant Alpecin04:40:31  +  00:33:46=31,228 
123123 GERAndré GreipelBELLotto Soudal04:40:31  +  00:33:46=31,228 
124124 UKRAndriy GrivkoKAZAstana Pro Team04:40:31  +  00:33:46=31,228 
125125 ITAFabio SabatiniBELEtixx - Quick Step04:40:39  +  00:33:54=31,213 
126126 ITAMatteo TosattoRUSTinkoff04:40:39  +  00:33:54=31,213 
127127 GERMarcel SiebergBELLotto Soudal04:40:43  +  00:33:58=31,206 
128128 GERRobert WagnerNLDTeam Lotto NL - Jumbo04:40:43  +  00:33:58=31,206 
129129 FRAArnold JeannessonFRACofidis – Solutions Crédits04:40:43  +  00:33:58=31,206 
130130 USALawson CraddockUSATeam Cannondale Drapac04:40:43  +  00:33:58=31,206 
131131 GERMarcel KittelBELEtixx - Quick Step04:40:53  +  00:34:08=31,187 
132132 SUIGregory RastUSATrek - Segafredo04:40:53  +  00:34:08=31,187 
133133 CZEPetr VakocBELEtixx - Quick Step04:40:53  +  00:34:08=31,187 
134134 ITAJacopo GuarnieriRUSTeam Katusha04:40:53  +  00:34:08=31,187 
135135 NORAlexander KristoffRUSTeam Katusha04:40:53  +  00:34:08=31,187 
136136 ARGEduardo SepulvedaFRAFortuneo - Vital Concept04:40:53  +  00:34:08=31,187 
137137 FRAFlorian VachonFRAFortuneo - Vital Concept04:40:53  +  00:34:08=31,187 
138138 RSAReinardt Janse Van RensburgZAFDimension Data04:40:53  +  00:34:08=31,187 
139139 ENGDaniel McLayFRAFortuneo - Vital Concept04:40:53  +  00:34:08=31,187 
140140 ITADavide CimolaiITALampre-Merida04:40:53  +  00:34:08=31,187 
141141 FRAJérémy RoyFRAFDJ04:40:53  +  00:34:08=31,187 
142142 AUSLeigh HowardCHEIAM Cycling04:40:53  +  00:34:08=31,187 
143143 AUSMathew HaymanAUSORICA BikeExchange04:40:53  +  00:34:08=31,187 
144144 FRACyril LemoineFRACofidis – Solutions Crédits04:40:53  +  00:34:08=31,187 
145145 FRAWilliam BonnetFRAFDJ04:40:53  +  00:34:08=31,187 
146146 AUTBernhard EiselZAFDimension Data04:40:53  +  00:34:08=31,187 
147147 FRAArmindo FonsecaFRAFortuneo - Vital Concept04:40:53  +  00:34:08=31,187 
148148 NZLGregory HendersonBELLotto Soudal04:40:53  +  00:34:08=31,187 
149149 NEDDylan GroenewegenNLDTeam Lotto NL - Jumbo04:40:53  +  00:34:08=31,187 
150150 AUSLuke DurbridgeAUSORICA BikeExchange04:40:53  +  00:34:08=31,187 
151151 GERJohn DegenkolbDEUTeam Giant Alpecin04:40:53  +  00:34:08=31,187 
152152 USAAlex HowesUSATeam Cannondale Drapac04:40:53  +  00:34:08=31,187 
153153 BELSerge PauwelsZAFDimension Data04:40:53  +  00:34:08=31,187 
154154 FRASamuel DumoulinFRAAg2r La Mondiale04:40:53  +  00:34:08=31,187 
155155 FRAChristophe LaporteFRACofidis – Solutions Crédits04:40:53  +  00:34:08=31,187 
156156 BELMaarten WynantsNLDTeam Lotto NL - Jumbo04:40:53  +  00:34:08=31,187 
157157 ERINatnael Teweldemedhin BerhaneZAFDimension Data04:40:53  +  00:34:08=31,187 
158158 DENLars BakBELLotto Soudal04:40:53  +  00:34:08=31,187 
159159 ESPMarkel IrizarUSATrek - Segafredo04:40:53  +  00:34:08=31,187 
160160 BELIljo KeisseBELEtixx - Quick Step04:40:53  +  00:34:08=31,187 
161161 FRAThomas VoecklerFRADirect Energie04:41:17  +  00:34:32=31,143 
162162 FRAYohann GèneFRADirect Energie04:41:17  +  00:34:32=31,143 
163163 NEDAlbert TimmerDEUTeam Giant Alpecin04:41:19  +  00:34:34=31,139 
164164 NEDRamon SinkeldamDEUTeam Giant Alpecin04:41:19  +  00:34:34=31,139 
165165 NEDLaurens ten DamDEUTeam Giant Alpecin04:41:19  +  00:34:34=31,139 
166166 URSRamunas NavardauskasUSATeam Cannondale Drapac04:41:19  +  00:34:34=31,139 
167167 GERAndreas SchillingerDEUBora-Argon 1804:41:19  +  00:34:34=31,139 
168168 SUIMichael AlbasiniAUSORICA BikeExchange04:41:19  +  00:34:34=31,139 
169169 BELSam BennettDEUBora-Argon 1804:41:19  +  00:34:34=31,139 
170170 ENGStephen CummingsZAFDimension Data04:41:19  +  00:34:34=31,139 
171171 NOREdvald Boasson HagenZAFDimension Data04:41:19  +  00:34:34=31,139 
172172 POLMaciej BodnarRUSTinkoff04:41:45  +  00:35:00=31,091 
173173 FRAAdrien PetitFRADirect Energie04:42:13  +  00:35:28=31,040 
174174 FRAGeoffrey SoupeFRACofidis – Solutions Crédits04:42:13  +  00:35:28=31,040 
175175 GERTony MartinBELEtixx - Quick Step04:43:04  +  00:36:19=30,947 

Todays birthdays.

1878  Jean Novo
1883  Jules Chabas
1890  Ange Aubry
1893  Roger Marye
1913  Paul Maye
1914  Lucien Vlaemynck
1915  Alphonse Antoine
1932  Rolf Graf
1953  Julio Rubiano
1959  Jos Haex
1959  Gerard Veldscholten
1963  Pablo Moreno
1964  Juan Castillo
1977  Iban Mayo
1994  Fernando Gaviria